Location: �perlecques
(50.8057°N, 2.1521°E)
Time: 20:07:37
(UTC+00:00)

Vanguard 3 - Pass Details

Date: 03 August 2021
Orbit: 510 x 3260 km, 33.3° (Epoch: 17 September)

Event Time Altitude Azimuth Distance (km) Brightness Sun altitude
Rises 22:07:50 0° 271° (W) 6,713 12.2 -17.8°
Reaches altitude 10° 22:12:53 10° 262° (W) 5,942 11.7 -18.2°
Maximum altitude 22:27:56 30° 211° (SSW) 4,683 10.6 -19.2°
Enters shadow 22:36:29 22° 176° (S) 5,026 10.6 -19.7°
